����,���ϕ���(m/s),���ϕ���,�ő�u�ԕ���(m/s),�ő啗��������,�C��(��),���x(%),10���Ԉړ��ώZ�J��(mm),1���Ԉړ��ώZ�J��(mm),���J��(mm),�݌v�J��(mm),����(���ώZ)(MJ/m2),����(���ώZ)(min),���n�C��(hPa),�C�ʋC��(hPa)
2019-11-18T00:00:00+09:00,0.2,�É�,0.8,��,8.8,92.9,0,0,0,0,9.39,220,1009.6,1023.9
2019-11-18T00:01:00+09:00,0.3,��쓌,0.8,��,8.8,92.9,0,0,0,0,0,0,1009.6,1023.9
2019-11-18T00:02:00+09:00,0.3,�쓌,0.8,��,8.7,92.8,0,0,0,0,0,0,1009.6,1023.9
2019-11-18T00:03:00+09:00,0.3,�쓌,0.8,��,8.6,92.7,0,0,0,0,0,0,1009.6,1023.9
2019-11-18T00:04:00+09:00,0.3,���쓌,0.9,���k��,8.5,92.6,0,0,0,0,0,0,1009.6,1023.9
2019-11-18T00:05:00+09:00,0.3,���쓌,0.9,���k��,8.5,92.7,0,0,0,0,0,0,1009.6,1023.9
2019-11-18T00:06:00+09:00,0.3,���쓌,0.9,���k��,8.6,93.1,0,0,0,0,0,0,1009.5,1023.8
2019-11-18T00:07:00+09:00,0.4,��,0.9,���k��,8.6,93.5,0,0,0,0,0,0,1009.5,1023.8
2019-11-18T00:08:00+09:00,0.4,��,0.9,���k��,8.7,93.7,0,0,0,0,0,0,1009.5,1023.8
2019-11-18T00:09:00+09:00,0.4,���k��,0.9,���k��,8.6,93.7,0,0,0,0,0,0,1009.5,1023.8
2019-11-18T00:10:00+09:00,0.4,���k��,0.9,���k��,8.7,93.5,0,0,0,0,0,0,1009.6,1023.9
2019-11-18T00:11:00+09:00,0.4,�k��,0.9,���k��,8.5,93.2,0,0,0,0,0,0,1009.6,1023.9
2019-11-18T00:12:00+09:00,0.4,�k�k��,0.9,���k��,8.5,92.8,0,0,0,0,0,0,1009.6,1023.9
2019-11-18T00:13:00+09:00,0.5,�k�k��,1,��,8.6,93,0,0,0,0,0,0,1009.6,1023.9
2019-11-18T00:14:00+09:00,0.5,���k��,1,��,8.6,93.3,0,0,0,0,0,0,1009.6,1023.9
2019-11-18T00:15:00+09:00,0.5,���k��,1,��,8.5,92.8,0,0,0,0,0,0,1009.7,1024
2019-11-18T00:16:00+09:00,0.5,���k��,1,��,8.5,92.9,0,0,0,0,0,0,1009.7,1024
2019-11-18T00:17:00+09:00,0.5,��,1,��,8.6,93.1,0,0,0,0,0,0,1009.7,1024
2019-11-18T00:18:00+09:00,0.6,��,1,��,8.5,92.9,0,0,0,0,0,0,1009.7,1024
2019-11-18T00:19:00+09:00,0.6,��,1.2,���k��,8.6,92.9,0,0,0,0,0,0,1009.7,1024
2019-11-18T00:20:00+09:00,0.7,���k��,1.2,���k��,8.7,92.9,0,0,0,0,0,0,1009.7,1024
2019-11-18T00:21:00+09:00,0.8,���k��,1.5,��,8.8,93.3,0,0,0,0,0,0,1009.7,1024
2019-11-18T00:22:00+09:00,0.8,���k��,1.6,��,8.7,93.1,0,0,0,0,0,0,1009.7,1024
2019-11-18T00:23:00+09:00,0.9,���k��,1.6,��,8.6,92.2,0,0,0,0,0,0,1009.7,1024
2019-11-18T00:24:00+09:00,1,���k��,1.9,���k��,8.5,91.7,0,0,0,0,0,0,1009.7,1024
2019-11-18T00:25:00+09:00,1,���k��,2,���k��,8.5,91.6,0,0,0,0,0,0,1009.6,1023.9
2019-11-18T00:26:00+09:00,1.1,���k��,2.1,��,8.4,91.6,0,0,0,0,0,0,1009.6,1023.9
2019-11-18T00:27:00+09:00,1.2,���k��,2.1,��,8.3,91.8,0,0,0,0,0,0,1009.6,1023.9
2019-11-18T00:28:00+09:00,1.3,���k��,2.1,��,8.4,92.2,0,0,0,0,0,0,1009.6,1023.9
2019-11-18T00:29:00+09:00,1.4,���k��,2.1,��,8.5,92.6,0,0,0,0,0,0,1009.6,1023.9
2019-11-18T00:30:00+09:00,1.4,��,2.1,��,8.6,92.7,0,0,0,0,0,0,1009.6,1023.9
2019-11-18T00:31:00+09:00,1.5,��,2.1,��,8.5,92.6,0,0,0,0,0,0,1009.6,1023.9
2019-11-18T00:32:00+09:00,1.5,��,2.1,��,8.4,91.9,0,0,0,0,0,0,1009.6,1023.9
2019-11-18T00:33:00+09:00,1.4,��,2.1,��,8.6,92.5,0,0,0,0,0,0,1009.6,1023.9
2019-11-18T00:34:00+09:00,1.4,��,2.1,��,8.6,92.7,0,0,0,0,0,0,1009.6,1023.9
2019-11-18T00:35:00+09:00,1.3,��,2.1,��,8.6,92.5,0,0,0,0,0,0,1009.6,1023.9
2019-11-18T00:36:00+09:00,1.3,��,1.9,��,8.7,92.4,0,0,0,0,0,0,1009.6,1023.9
2019-11-18T00:37:00+09:00,1.2,��,1.9,��,8.7,92.4,0,0,0,0,0,0,1009.6,1023.9
2019-11-18T00:38:00+09:00,1.2,��,1.9,��,8.6,91.8,0,0,0,0,0,0,1009.6,1023.9
2019-11-18T00:39:00+09:00,1.2,��,1.8,��,8.6,91.8,0,0,0,0,0,0,1009.7,1024
2019-11-18T00:40:00+09:00,1.2,��,1.8,��,8.6,91.9,0,0,0,0,0,0,1009.7,1024
2019-11-18T00:41:00+09:00,1.1,��,1.7,��,8.6,92.1,0,0,0,0,0,0,1009.7,1024
2019-11-18T00:42:00+09:00,1.1,��,1.6,��,8.6,92.3,0,0,0,0,0,0,1009.7,1024
2019-11-18T00:43:00+09:00,1.1,��,1.6,��,8.6,92.2,0,0,0,0,0,0,1009.7,1024
2019-11-18T00:44:00+09:00,1.1,��,1.6,��,8.5,92.1,0,0,0,0,0,0,1009.7,1024
2019-11-18T00:45:00+09:00,1.1,��,1.6,��,8.7,92.6,0,0,0,0,0,0,1009.7,1024
2019-11-18T00:46:00+09:00,1,��,1.6,��,8.6,92.9,0,0,0,0,0,0,1009.6,1023.9
2019-11-18T00:47:00+09:00,0.9,���쐼,1.6,��,8.3,91.7,0,0,0,0,0,0,1009.6,1023.9
2019-11-18T00:48:00+09:00,0.8,���쐼,1.4,���쐼,8.4,91.5,0,0,0,0,0,0,1009.6,1023.9
2019-11-18T00:49:00+09:00,0.7,�쐼,1.4,���쐼,8.3,92,0,0,0,0,0,0,1009.6,1023.9
2019-11-18T00:50:00+09:00,0.5,��쐼,1.4,���쐼,8.3,92.2,0,0,0,0,0,0,1009.6,1023.9
2019-11-18T00:51:00+09:00,0.5,��쓌,1.4,���쐼,8.2,92.5,0,0,0,0,0,0,1009.5,1023.8
2019-11-18T00:52:00+09:00,0.4,���쓌,1.2,���쐼,8.2,92.7,0,0,0,0,0,0,1009.5,1023.8
2019-11-18T00:53:00+09:00,0.3,���쓌,1.2,���쐼,8.3,93.2,0,0,0,0,0,0,1009.5,1023.8
2019-11-18T00:54:00+09:00,0.2,�É�,1.2,���쐼,8.3,93.6,0,0,0,0,0,0,1009.5,1023.8
2019-11-18T00:55:00+09:00,0.2,�É�,0.5,��,8.2,93.4,0,0,0,0,0,0,1009.4,1023.7
2019-11-18T00:56:00+09:00,0.1,�É�,0.6,��쐼,8,92.8,0,0,0,0,0,0,1009.4,1023.7
2019-11-18T00:57:00+09:00,0.2,�É�,1.1,��쐼,8,92.4,0,0,0,0,0,0,1009.4,1023.7
2019-11-18T00:58:00+09:00,0.2,�É�,1.1,��쐼,8,92.8,0,0,0,0,0,0,1009.4,1023.7
2019-11-18T00:59:00+09:00,0.2,�É�,1.1,��쐼,8.2,93.4,0,0,0,0,0,0,1009.3,1023.6
2019-11-18T01:00:00+09:00,0.3,�쓌,1.1,��쐼,8.2,93.8,0,0,0,0,0,0,1009.4,1023.7
2019-11-18T01:01:00+09:00,0.3,��쓌,1.1,��쐼,8.3,93.5,0,0,0,0,0,0,1009.4,1023.7
2019-11-18T01:02:00+09:00,0.3,��쐼,1.1,��쐼,8.3,93.6,0,0,0,0,0,0,1009.4,1023.7
2019-11-18T01:03:00+09:00,0.3,��쐼,1.1,��쐼,8.1,93.1,0,0,0,0,0,0,1009.4,1023.7
2019-11-18T01:04:00+09:00,0.4,��쐼,1.1,��쐼,7.8,92,0,0,0,0,0,0,1009.3,1023.6
2019-11-18T01:05:00+09:00,0.4,��쐼,1.3,��,7.8,92.1,0,0,0,0,0,0,1009.3,1023.6
2019-11-18T01:06:00+09:00,0.5,��쐼,1.5,��,7.9,92.6,0,0,0,0,0,0,1009.3,1023.6
2019-11-18T01:07:00+09:00,0.5,��쐼,1.5,��,8,93.2,0,0,0,0,0,0,1009.3,1023.6
2019-11-18T01:08:00+09:00,0.6,��쐼,1.5,��,7.9,93.6,0,0,0,0,0,0,1009.2,1023.5
2019-11-18T01:09:00+09:00,0.6,�쐼,1.5,��,8,93.9,0,0,0,0,0,0,1009.2,1023.5
2019-11-18T01:10:00+09:00,0.6,��쐼,1.5,��,8.1,94.5,0,0,0,0,0,0,1009.2,1023.5
2019-11-18T01:11:00+09:00,0.6,��쐼,1.5,��,8.1,93.9,0,0,0,0,0,0,1009.2,1023.5
2019-11-18T01:12:00+09:00,0.6,�쐼,1.8,�쐼,8.2,94.3,0,0,0,0,0,0,1009.1,1023.4
2019-11-18T01:13:00+09:00,0.7,�쐼,1.8,�쐼,8.2,94.4,0,0,0,0,0,0,1009.1,1023.4
2019-11-18T01:14:00+09:00,0.7,�쐼,1.8,�쐼,8.2,94.5,0,0,0,0,0,0,1009,1023.3
2019-11-18T01:15:00+09:00,0.8,�쐼,1.8,�쐼,8.2,94,0,0,0,0,0,0,1009,1023.3
2019-11-18T01:16:00+09:00,0.8,�쐼,1.8,�쐼,8.2,94,0,0,0,0,0,0,1008.9,1023.2
2019-11-18T01:17:00+09:00,0.8,�쐼,1.8,�쐼,8.1,94,0,0,0,0,0,0,1008.9,1023.2
2019-11-18T01:18:00+09:00,0.9,��쐼,1.8,�쐼,8.1,93.9,0,0,0,0,0,0,1008.9,1023.2
2019-11-18T01:19:00+09:00,0.9,��쐼,1.8,�쐼,8.1,93.9,0,0,0,0,0,0,1008.9,1023.2
2019-11-18T01:20:00+09:00,1,��쐼,1.8,�쐼,8,93.5,0,0,0,0,0,0,1008.8,1023.1
2019-11-18T01:21:00+09:00,1,��쐼,1.8,�쐼,8,93.7,0,0,0,0,0,0,1008.9,1023.2
2019-11-18T01:22:00+09:00,1.1,��쐼,2,��쐼,8,93.8,0,0,0,0,0,0,1008.9,1023.2
2019-11-18T01:23:00+09:00,1.2,��쐼,2.3,�쐼,8,93.9,0,0,0,0,0,0,1008.9,1023.2
2019-11-18T01:24:00+09:00,1.2,��쐼,2.3,�쐼,8.1,94.1,0,0,0,0,0,0,1008.9,1023.2
2019-11-18T01:25:00+09:00,1.3,��쐼,2.3,�쐼,8,94.4,0,0,0,0,0,0,1008.9,1023.2
2019-11-18T01:26:00+09:00,1.3,��쐼,2.3,�쐼,8,94.4,0,0,0,0,0,0,1008.8,1023.1
2019-11-18T01:27:00+09:00,1.2,��쐼,2.3,�쐼,8,94.4,0,0,0,0,0,0,1008.9,1023.2
2019-11-18T01:28:00+09:00,1.2,��쐼,2.3,�쐼,7.9,94.2,0,0,0,0,0,0,1008.9,1023.2
2019-11-18T01:29:00+09:00,1.2,��쐼,2.3,�쐼,8,94.4,0,0,0,0,0,0,1008.8,1023.1
2019-11-18T01:30:00+09:00,1.2,��쐼,2.3,�쐼,8,94.6,0,0,0,0,0,0,1008.8,1023.1
2019-11-18T01:31:00+09:00,1.2,��쐼,2.3,�쐼,8,94.5,0,0,0,0,0,0,1008.8,1023.1
2019-11-18T01:32:00+09:00,1.2,��쐼,2.3,�쐼,7.9,94.4,0,0,0,0,0,0,1008.8,1023.1
2019-11-18T01:33:00+09:00,1.1,��쐼,2.1,��쐼,7.9,94.3,0,0,0,0,0,0,1008.8,1023.1
2019-11-18T01:34:00+09:00,1,��쐼,1.7,��쐼,8.2,94.9,0,0,0,0,0,0,1008.8,1023.1
2019-11-18T01:35:00+09:00,0.9,��쐼,1.7,��쐼,8.2,95.2,0,0,0,0,0,0,1008.8,1023.1
2019-11-18T01:36:00+09:00,0.8,��쐼,1.7,��쐼,8.3,95.1,0,0,0,0,0,0,1008.8,1023.1
2019-11-18T01:37:00+09:00,0.8,��쐼,1.7,��쐼,7.9,93.7,0,0,0,0,0,0,1008.8,1023.1
2019-11-18T01:38:00+09:00,0.7,��쐼,1.7,��쐼,7.8,93.3,0,0,0,0,0,0,1008.8,1023.1
2019-11-18T01:39:00+09:00,0.7,�쐼,1.7,��쐼,7.6,92.3,0,0,0,0,0,0,1008.8,1023.1
2019-11-18T01:40:00+09:00,0.6,�쐼,1.7,��쐼,7.7,93.1,0,0,0,0,0,0,1008.8,1023.1
2019-11-18T01:41:00+09:00,0.6,�쐼,1.5,���쐼,7.9,93.8,0,0,0,0,0,0,1008.8,1023.1
2019-11-18T01:42:00+09:00,0.6,�쐼,1.8,��쐼,7.8,94.2,0,0,0,0,0,0,1008.7,1023
2019-11-18T01:43:00+09:00,0.6,�쐼,1.8,��쐼,7.8,94.2,0,0,0,0,0,0,1008.7,1023
2019-11-18T01:44:00+09:00,0.7,�쐼,2,�쐼,8,94.4,0,0,0,0,0,0,1008.7,1023
2019-11-18T01:45:00+09:00,0.7,�쐼,2,�쐼,8,95,0,0,0,0,0,0,1008.7,1023
2019-11-18T01:46:00+09:00,0.9,�쐼,2.1,��쐼,7.8,94.7,0,0,0,0,0,0,1008.7,1023
2019-11-18T01:47:00+09:00,1,�쐼,2.1,��쐼,7.9,94.5,0,0,0,0,0,0,1008.7,1023
2019-11-18T01:48:00+09:00,1,�쐼,2.1,��쐼,8,95,0,0,0,0,0,0,1008.7,1023
2019-11-18T01:49:00+09:00,1.1,��쐼,2.1,��쐼,8,94.9,0,0,0,0,0,0,1008.6,1022.9
2019-11-18T01:50:00+09:00,1.1,��쐼,2.1,��쐼,7.8,94.4,0,0,0,0,0,0,1008.6,1022.9
2019-11-18T01:51:00+09:00,1.2,��쐼,2.1,��쐼,8,94.4,0,0,0,0,0,0,1008.6,1022.9
2019-11-18T01:52:00+09:00,1.2,��쐼,2.1,��쐼,7.8,94.6,0,0,0,0,0,0,1008.6,1022.9
2019-11-18T01:53:00+09:00,1.1,��쐼,2.1,��쐼,7.8,94.2,0,0,0,0,0,0,1008.6,1022.9
2019-11-18T01:54:00+09:00,1.1,��쐼,2.1,��쐼,8,94.3,0,0,0,0,0,0,1008.5,1022.8
2019-11-18T01:55:00+09:00,1.2,��쐼,2.1,��쐼,7.9,94.4,0,0,0,0,0,0,1008.5,1022.8
2019-11-18T01:56:00+09:00,1.2,��쐼,1.7,��쐼,7.7,93.8,0,0,0,0,0,0,1008.5,1022.8
2019-11-18T01:57:00+09:00,1.2,��쐼,1.9,��쐼,7.5,93.2,0,0,0,0,0,0,1008.5,1022.8
2019-11-18T01:58:00+09:00,1.3,��쐼,2.1,��쐼,7.6,93.3,0,0,0,0,0,0,1008.4,1022.7
2019-11-18T01:59:00+09:00,1.3,��쐼,2.1,��쐼,7.8,94.2,0,0,0,0,0,0,1008.4,1022.7
2019-11-18T02:00:00+09:00,1.4,��쐼,2.1,��쐼,7.9,94.8,0,0,0,0,0,0,1008.4,1022.7
2019-11-18T02:01:00+09:00,1.4,��쐼,2.1,��쐼,7.8,94.8,0,0,0,0,0,0,1008.3,1022.6
2019-11-18T02:02:00+09:00,1.4,��쐼,2.1,��쐼,7.8,94.5,0,0,0,0,0,0,1008.3,1022.6
2019-11-18T02:03:00+09:00,1.4,��쐼,2.1,��쐼,7.9,94.8,0,0,0,0,0,0,1008.2,1022.5
2019-11-18T02:04:00+09:00,1.4,��쐼,2.1,��쐼,7.9,94.9,0,0,0,0,0,0,1008.2,1022.5
2019-11-18T02:05:00+09:00,1.4,��쐼,2.1,��쐼,7.9,94.9,0,0,0,0,0,0,1008.2,1022.5
2019-11-18T02:06:00+09:00,1.4,��쐼,2.1,��쐼,7.8,94.6,0,0,0,0,0,0,1008.2,1022.5
2019-11-18T02:07:00+09:00,1.4,��쐼,2.1,��쐼,7.8,94.3,0,0,0,0,0,0,1008.2,1022.5
2019-11-18T02:08:00+09:00,1.4,��쐼,2.4,��쐼,7.8,94.4,0,0,0,0,0,0,1008.2,1022.5
2019-11-18T02:09:00+09:00,1.4,��쐼,2.4,��쐼,7.8,94.5,0,0,0,0,0,0,1008.2,1022.5
2019-11-18T02:10:00+09:00,1.4,��쐼,2.4,��쐼,7.8,94.5,0,0,0,0,0,0,1008.2,1022.5
2019-11-18T02:11:00+09:00,1.5,��쐼,2.4,��쐼,7.8,94.7,0,0,0,0,0,0,1008.2,1022.5
2019-11-18T02:12:00+09:00,1.5,��쐼,2.4,��쐼,7.7,94.8,0,0,0,0,0,0,1008.2,1022.5
2019-11-18T02:13:00+09:00,1.6,��쐼,2.4,��쐼,7.8,94.7,0,0,0,0,0,0,1008.1,1022.4
2019-11-18T02:14:00+09:00,1.6,��쐼,2.4,��쐼,7.9,95.1,0,0,0,0,0,0,1008.1,1022.4
2019-11-18T02:15:00+09:00,1.6,��쐼,2.4,��쐼,7.8,95.2,0,0,0,0,0,0,1008.1,1022.4
2019-11-18T02:16:00+09:00,1.6,��쐼,2.4,��쐼,7.9,95.2,0,0,0,0,0,0,1008,1022.3
2019-11-18T02:17:00+09:00,1.6,��쐼,2.4,��쐼,7.9,95.2,0,0,0,0,0,0,1008,1022.3
2019-11-18T02:18:00+09:00,1.6,��쐼,2.3,��쐼,7.8,95,0,0,0,0,0,0,1008,1022.3
2019-11-18T02:19:00+09:00,1.4,��쐼,2.3,��쐼,7.8,94.9,0,0,0,0,0,0,1008,1022.3
2019-11-18T02:20:00+09:00,1.3,��쐼,2.3,��쐼,7.9,95,0,0,0,0,0,0,1007.9,1022.2
2019-11-18T02:21:00+09:00,1.1,��쐼,2.3,��쐼,8,95.3,0,0,0,0,0,0,1007.9,1022.2
2019-11-18T02:22:00+09:00,1.1,��쐼,2.3,��쐼,7.9,95,0,0,0,0,0,0,1007.9,1022.2
2019-11-18T02:23:00+09:00,1,��쐼,2.2,��쐼,7.9,94.7,0,0,0,0,0,0,1007.8,1022.1
2019-11-18T02:24:00+09:00,0.9,��쐼,1.9,��쐼,7.7,94.4,0,0,0,0,0,0,1007.8,1022.1
2019-11-18T02:25:00+09:00,0.9,��쐼,1.9,��쐼,7.7,94.1,0,0,0,0,0,0,1007.8,1022.1
2019-11-18T02:26:00+09:00,0.8,��쐼,1.9,��쐼,7.8,94.2,0,0,0,0,0,0,1007.7,1022
2019-11-18T02:27:00+09:00,0.9,��쐼,2.1,��,7.7,94.4,0,0,0,0,0,0,1007.7,1022
2019-11-18T02:28:00+09:00,0.9,��쐼,3.2,��쐼,7.7,94.3,0,0,0,0,0,0,1007.7,1022
2019-11-18T02:29:00+09:00,1.2,��쐼,4.2,��,7.8,94.5,0,0,0,0,0,0,1007.6,1021.9
2019-11-18T02:30:00+09:00,1.4,��쐼,4.2,��,7.8,94.7,0,0,0,0,0,0,1007.6,1021.9
2019-11-18T02:31:00+09:00,1.7,��쐼,4.2,��,7.8,95,0,0,0,0,0,0,1007.5,1021.8
2019-11-18T02:32:00+09:00,1.9,��쐼,4.2,��,7.8,94.9,0,0,0,0,0,0,1007.5,1021.8
2019-11-18T02:33:00+09:00,2.1,��쐼,4.2,��,7.8,94.9,0,0,0,0,0,0,1007.4,1021.7
2019-11-18T02:34:00+09:00,2.3,��쐼,4.2,��,7.9,95.1,0,0,0,0,0,0,1007.4,1021.7
2019-11-18T02:35:00+09:00,2.4,��쐼,4.2,��,7.9,95,0,0,0,0,0,0,1007.4,1021.7
2019-11-18T02:36:00+09:00,2.5,��쐼,4.2,��,7.8,94.8,0,0,0,0,0,0,1007.3,1021.6
2019-11-18T02:37:00+09:00,2.6,��쐼,4.2,��,7.9,94.8,0,0,0,0,0,0,1007.3,1021.6
2019-11-18T02:38:00+09:00,2.7,��쐼,4.2,��,7.9,94.8,0,0,0,0,0,0,1007.3,1021.6
2019-11-18T02:39:00+09:00,2.6,��쐼,3.9,��,7.9,94.9,0,0,0,0,0,0,1007.3,1021.6
2019-11-18T02:40:00+09:00,2.5,��쐼,3.9,��,7.9,94.8,0,0,0,0,0,0,1007.2,1021.5
2019-11-18T02:41:00+09:00,2.3,��쐼,3.9,��,8,94.8,0,0,0,0,0,0,1007.2,1021.5
2019-11-18T02:42:00+09:00,2.1,��쐼,3.8,��,8,94.9,0,0,0,0,0,0,1007.2,1021.5
2019-11-18T02:43:00+09:00,2,��,3.8,��,8.1,95,0,0,0,0,0,0,1007.2,1021.5
2019-11-18T02:44:00+09:00,1.8,��,3.8,��,8.3,95.2,0,0,0,0,0,0,1007.2,1021.5
2019-11-18T02:45:00+09:00,1.7,��,3.8,��,8.5,95.4,0,0,0,0,0,0,1007.2,1021.4
2019-11-18T02:46:00+09:00,1.5,��,3.8,��,8.6,95,0,0,0,0,0,0,1007.2,1021.4
2019-11-18T02:47:00+09:00,1.3,��,3.8,��,8.6,94,0,0,0,0,0,0,1007.2,1021.4
2019-11-18T02:48:00+09:00,1.1,��,3.8,��,8.7,93.3,0,0,0,0,0,0,1007.2,1021.4
2019-11-18T02:49:00+09:00,1,��,3.8,��,8.9,92.9,0,0,0,0,0,0,1007.2,1021.4
2019-11-18T02:50:00+09:00,0.8,��,2.4,��,9,92.4,0,0,0,0,0,0,1007.2,1021.4
2019-11-18T02:51:00+09:00,0.7,��,2.4,��,8.7,91,0,0,0,0,0,0,1007.2,1021.4
2019-11-18T02:52:00+09:00,0.6,��쓌,1.8,��,8.8,90.3,0,0,0,0,0,0,1007.1,1021.3
2019-11-18T02:53:00+09:00,0.5,��쓌,1.8,��,8.8,90,0,0,0,0,0,0,1007.2,1021.4
2019-11-18T02:54:00+09:00,0.4,��쓌,1.8,��,8.8,89.8,0,0,0,0,0,0,1007.2,1021.4
2019-11-18T02:55:00+09:00,0.4,��,1.6,���쓌,8.7,89.8,0,0,0,0,0,0,1007.2,1021.4
2019-11-18T02:56:00+09:00,0.3,��,1.6,���쓌,8.6,89.5,0,0,0,0,0,0,1007.2,1021.4
2019-11-18T02:57:00+09:00,0.3,��쐼,1.3,��,8.5,89.6,0,0,0,0,0,0,1007.2,1021.4
2019-11-18T02:58:00+09:00,0.3,�쐼,1.2,��,8.4,89.7,0,0,0,0,0,0,1007.2,1021.4
2019-11-18T02:59:00+09:00,0.4,���쐼,1.2,��,8.5,90.2,0,0,0,0,0,0,1007.1,1021.3
2019-11-18T03:00:00+09:00,0.4,���쐼,1.2,��,8.5,90.7,0,0,0,0,0,0,1007.1,1021.3
2019-11-18T03:01:00+09:00,0.4,���쐼,1.2,��,8.5,90.5,0,0,0,0,0,0,1007.1,1021.3
2019-11-18T03:02:00+09:00,0.5,���쐼,1.2,��,8.7,91.1,0,0,0,0,0,0,1007.1,1021.3
2019-11-18T03:03:00+09:00,0.5,���쐼,1.2,��,8.8,91.2,0,0,0,0,0,0,1007.1,1021.3
2019-11-18T03:04:00+09:00,0.5,���쐼,1.2,��,8.8,90.7,0,0,0,0,0,0,1007.1,1021.3
2019-11-18T03:05:00+09:00,0.5,���쐼,1.2,��,8.8,90,0,0,0,0,0,0,1007,1021.2
2019-11-18T03:06:00+09:00,0.5,���쐼,1.2,��,8.8,89.9,0,0,0,0,0,0,1007,1021.2
2019-11-18T03:07:00+09:00,0.4,���쐼,1.2,��,8.8,89.5,0,0,0,0,0,0,1007.1,1021.3
2019-11-18T03:08:00+09:00,0.4,���쐼,1.1,��,8.8,89.3,0,0,0,0,0,0,1007,1021.2
2019-11-18T03:09:00+09:00,0.3,�쐼,1,���k��,8.8,89.7,0,0,0,0,0,0,1007,1021.2
2019-11-18T03:10:00+09:00,0.3,��쐼,1,��쐼,8.7,89.2,0,0,0,0,0,0,1006.9,1021.1
2019-11-18T03:11:00+09:00,0.3,��,1.1,��쐼,8.7,88.9,0,0,0,0,0,0,1006.9,1021.1
2019-11-18T03:12:00+09:00,0.3,��쐼,1.1,��쐼,8.8,89.4,0,0,0,0,0,0,1006.9,1021.1
2019-11-18T03:13:00+09:00,0.3,��쐼,1.1,��쐼,8.7,89.6,0,0,0,0,0,0,1006.9,1021.1
2019-11-18T03:14:00+09:00,0.3,��쐼,1.1,��쐼,8.7,89.3,0,0,0,0,0,0,1006.8,1021
2019-11-18T03:15:00+09:00,0.3,��쐼,1.1,��쐼,8.7,89.8,0,0,0,0,0,0,1006.9,1021.1
2019-11-18T03:16:00+09:00,0.4,��쐼,1.4,�쐼,8.6,90.1,0,0,0,0,0,0,1006.8,1021
2019-11-18T03:17:00+09:00,0.4,��쐼,1.4,�쐼,8.4,89.2,0,0,0,0,0,0,1006.8,1021
2019-11-18T03:18:00+09:00,0.5,��쐼,1.4,�쐼,8.5,90.2,0,0,0,0,0,0,1006.8,1021
2019-11-18T03:19:00+09:00,0.6,��쐼,1.7,��,8.8,91.1,0,0,0,0,0,0,1006.7,1020.9
2019-11-18T03:20:00+09:00,0.6,�쐼,1.7,��,9.1,91.5,0,0,0,0,0,0,1006.8,1021
2019-11-18T03:21:00+09:00,0.6,��쐼,1.7,��,9,89.6,0,0,0,0,0,0,1006.8,1021
2019-11-18T03:22:00+09:00,0.7,��쐼,1.7,��,9,88.9,0,0,0,0,0,0,1006.8,1021
2019-11-18T03:23:00+09:00,0.7,��쐼,1.7,��,8.8,88.2,0,0,0,0,0,0,1006.8,1021
2019-11-18T03:24:00+09:00,0.7,��쐼,1.7,��,9,88.6,0,0,0,0,0,0,1006.8,1021
2019-11-18T03:25:00+09:00,0.8,��쐼,1.7,��,9,88.5,0,0,0,0,0,0,1006.7,1020.9
2019-11-18T03:26:00+09:00,0.8,��쐼,1.7,��,9.2,88.2,0,0,0,0,0,0,1006.7,1020.9
2019-11-18T03:27:00+09:00,0.8,��,1.7,��,9,88,0,0,0,0,0,0,1006.7,1020.9
2019-11-18T03:28:00+09:00,0.9,��,2,��,9.1,87.4,0,0,0,0,0,0,1006.7,1020.9
2019-11-18T03:29:00+09:00,1,��쐼,2.4,��,9.4,87.9,0,0,0,0,0,0,1006.6,1020.8
2019-11-18T03:30:00+09:00,1,��,2.4,��,9.4,86.8,0,0,0,0,0,0,1006.6,1020.8
2019-11-18T03:31:00+09:00,1,��쐼,2.4,��,9.4,86.3,0,0,0,0,0,0,1006.6,1020.8
2019-11-18T03:32:00+09:00,0.9,��,2.4,��,9.2,86.2,0,0,0,0,0,0,1006.5,1020.7
2019-11-18T03:33:00+09:00,1,��,2.4,��,9.3,86.1,0,0,0,0,0,0,1006.5,1020.7
2019-11-18T03:34:00+09:00,1.1,��,2.4,��,9.3,86,0,0,0,0,0,0,1006.5,1020.7
2019-11-18T03:35:00+09:00,1.1,��,2.4,��,9.3,86,0,0,0,0,0,0,1006.5,1020.7
2019-11-18T03:36:00+09:00,1.1,��,2.4,��,9.4,85.8,0,0,0,0,0,0,1006.4,1020.6
2019-11-18T03:37:00+09:00,1.1,��,2.4,��,9.4,85.7,0,0,0,0,0,0,1006.4,1020.6
2019-11-18T03:38:00+09:00,1.1,��,2.4,��,9.5,85.6,0,0,0,0,0,0,1006.4,1020.6
2019-11-18T03:39:00+09:00,1.1,��,2,��,9.5,85.1,0,0,0,0,0,0,1006.4,1020.6
2019-11-18T03:40:00+09:00,1.1,��,2.1,��쐼,9.7,84.9,0,0,0,0,0,0,1006.4,1020.6
2019-11-18T03:41:00+09:00,1.2,��,2.1,��쐼,9.7,84.4,0,0,0,0,0,0,1006.4,1020.6
2019-11-18T03:42:00+09:00,1.3,��,2.1,��쐼,9.7,83.6,0,0,0,0,0,0,1006.3,1020.5
2019-11-18T03:43:00+09:00,1.3,��,2.1,��쐼,9.6,83.4,0,0,0,0,0,0,1006.3,1020.5
2019-11-18T03:44:00+09:00,1.2,��,2.1,��쐼,9.6,83.5,0,0,0,0,0,0,1006.3,1020.5
2019-11-18T03:45:00+09:00,1.2,��,2.1,��쐼,9.8,83.7,0,0,0,0,0,0,1006.2,1020.4
2019-11-18T03:46:00+09:00,1.1,��,2.1,��쐼,9.7,83.4,0,0,0,0,0,0,1006.2,1020.4
2019-11-18T03:47:00+09:00,1.1,��,2.1,��쐼,9.7,83.3,0,0,0,0,0,0,1006.2,1020.4
2019-11-18T03:48:00+09:00,1,��,2.1,��쐼,9.6,83.5,0,0,0,0,0,0,1006.2,1020.4
2019-11-18T03:49:00+09:00,0.9,��,2.1,��쐼,9.7,83.9,0,0,0,0,0,0,1006.2,1020.4
2019-11-18T03:50:00+09:00,0.8,��,2,��,9.7,84.1,0,0,0,0,0,0,1006.2,1020.4
2019-11-18T03:51:00+09:00,0.7,��,1.7,��,9.8,83.9,0,0,0,0,0,0,1006.2,1020.4
2019-11-18T03:52:00+09:00,0.7,��,1.7,��,9.9,83.7,0,0,0,0,0,0,1006.2,1020.4
2019-11-18T03:53:00+09:00,0.7,��,1.6,��쐼,10,83.4,0,0,0,0,0,0,1006.2,1020.4
2019-11-18T03:54:00+09:00,0.6,��,1.5,��,10.3,82.8,0,0,0,0,0,0,1006.2,1020.3
2019-11-18T03:55:00+09:00,0.6,��,1.5,��쐼,10.4,81.6,0,0,0,0,0,0,1006.2,1020.3
2019-11-18T03:56:00+09:00,0.7,��쓌,2,��쓌,10.4,80.8,0,0,0,0,0,0,1006.2,1020.3
2019-11-18T03:57:00+09:00,0.7,��쓌,2,��쓌,10.4,80.5,0,0,0,0,0,0,1006.2,1020.3
2019-11-18T03:58:00+09:00,0.7,��쓌,2,��쓌,10.4,80.3,0,0,0,0,0,0,1006.1,1020.2
2019-11-18T03:59:00+09:00,0.8,��,2,��쓌,10.5,80.2,0,0,0,0,0,0,1006.1,1020.2
2019-11-18T04:00:00+09:00,0.8,��,2,��쓌,10.4,79.8,0,0,0,0,0,0,1006.1,1020.2
2019-11-18T04:01:00+09:00,0.9,��,2.8,��쐼,10.7,80,0,0,0,0,0,0,1006.1,1020.2
2019-11-18T04:02:00+09:00,0.9,��,2.8,��쐼,11.1,79.3,0,0,0,0,0,0,1006.1,1020.2
2019-11-18T04:03:00+09:00,1,��,2.8,��쐼,11.2,77.6,0,0,0,0,0,0,1006.1,1020.2
2019-11-18T04:04:00+09:00,1,��,2.8,��쐼,11.1,76.9,0,0,0,0,0,0,1006.2,1020.3
2019-11-18T04:05:00+09:00,1,��,2.8,��쐼,11.2,76.8,0,0,0,0,0,0,1006.1,1020.2
2019-11-18T04:06:00+09:00,1,��,2.8,��쐼,11.4,76.4,0,0,0,0,0,0,1006.2,1020.3
2019-11-18T04:07:00+09:00,0.9,��쓌,2.8,��쐼,11,75.9,0,0,0,0,0,0,1006.2,1020.3
2019-11-18T04:08:00+09:00,0.9,��쓌,2.8,��쐼,10.6,76.6,0,0,0,0,0,0,1006.2,1020.3
2019-11-18T04:09:00+09:00,0.8,��쓌,2.8,��쐼,10.9,78.2,0,0,0,0,0,0,1006.1,1020.2
2019-11-18T04:10:00+09:00,0.8,�쓌,2.8,��쐼,11.3,77.6,0,0,0,0,0,0,1006.1,1020.2
2019-11-18T04:11:00+09:00,0.9,�쓌,3.2,��,11.1,76.3,0,0,0,0,0,0,1006,1020.1
2019-11-18T04:12:00+09:00,0.9,�쓌,3.7,��,11.5,76.5,0,0,0,0,0,0,1006,1020.1
2019-11-18T04:13:00+09:00,0.9,�쓌,3.7,��,11.7,75.7,0,0,0,0,0,0,1006.1,1020.2
2019-11-18T04:14:00+09:00,1,���쓌,3.7,��,11.9,74.9,0,0,0,0,0,0,1006.1,1020.2
2019-11-18T04:15:00+09:00,1,���쓌,3.7,��,11.7,74.4,0,0,0,0,0,0,1006.1,1020.2
2019-11-18T04:16:00+09:00,1,���쓌,3.7,��,11.7,74.1,0,0,0,0,0,0,1006.1,1020.2
2019-11-18T04:17:00+09:00,1,���쓌,3.7,��,11.7,74.1,0,0,0,0,0,0,1006.1,1020.2
2019-11-18T04:18:00+09:00,1.1,���쓌,3.7,��,11.9,73.7,0,0,0,0,0,0,1006.1,1020.2
2019-11-18T04:19:00+09:00,1.2,���쓌,3.7,��,11.9,73.2,0,0,0,0,0,0,1006.1,1020.2
2019-11-18T04:20:00+09:00,1.2,�쓌,3.7,��,11.8,72.8,0,0,0,0,0,0,1006,1020.1
2019-11-18T04:21:00+09:00,1.2,�쓌,3.7,��,11.9,73,0,0,0,0,0,0,1006,1020.1
2019-11-18T04:22:00+09:00,1.2,�쓌,2.9,�쓌,11.9,72.9,0,0,0,0,0,0,1005.9,1020
2019-11-18T04:23:00+09:00,1.2,�쓌,2.9,�쓌,11.8,72.8,0,0,0,0,0,0,1005.9,1020
2019-11-18T04:24:00+09:00,1.2,�쓌,2.9,�쓌,11.8,73,0,0,0,0,0,0,1005.9,1020
2019-11-18T04:25:00+09:00,1.2,�쓌,2.9,�쓌,11.7,73.3,0,0,0,0,0,0,1005.9,1020
2019-11-18T04:26:00+09:00,1.2,�쓌,2.9,�쓌,11.8,73.4,0,0,0,0,0,0,1005.9,1020
2019-11-18T04:27:00+09:00,1.2,�쓌,2.9,�쓌,11.7,73.4,0,0,0,0,0,0,1005.9,1020
2019-11-18T04:28:00+09:00,1.2,�쓌,2.9,�쓌,11.6,73.7,0,0,0,0,0,0,1005.9,1020
2019-11-18T04:29:00+09:00,1.1,�쓌,2.9,�쓌,11.5,74.3,0,0,0,0,0,0,1005.9,1020
2019-11-18T04:30:00+09:00,1.1,�쓌,2.9,�쓌,11.7,74.7,0,0,0,0,0,0,1005.9,1020
2019-11-18T04:31:00+09:00,1,�쓌,2.9,�쓌,11.6,74.4,0,0,0,0,0,0,1005.9,1020
2019-11-18T04:32:00+09:00,1,�쓌,2.4,��,11.6,74.5,0,0,0,0,0,0,1005.8,1019.9
2019-11-18T04:33:00+09:00,1,��쓌,2.3,��,11.6,74.7,0,0,0,0,0,0,1005.9,1020
2019-11-18T04:34:00+09:00,1,��쓌,2.3,��,11.7,74.9,0,0,0,0,0,0,1005.9,1020
2019-11-18T04:35:00+09:00,1,��쓌,2.3,��,11.7,74.8,0,0,0,0,0,0,1005.8,1019.9
2019-11-18T04:36:00+09:00,1,�쓌,2.6,��쓌,11.8,74.6,0,0,0,0,0,0,1005.8,1019.9
2019-11-18T04:37:00+09:00,1,��쓌,2.6,��쓌,11.8,74.5,0,0,0,0,0,0,1005.8,1019.9
2019-11-18T04:38:00+09:00,1.1,��쓌,2.6,��쓌,11.8,74.6,0,0,0,0,0,0,1005.8,1019.9
2019-11-18T04:39:00+09:00,1,��쓌,2.6,��쓌,11.7,74.6,0,0,0,0,0,0,1005.9,1020
2019-11-18T04:40:00+09:00,1,��쓌,2.6,��쓌,11.7,74.9,0,0,0,0,0,0,1005.9,1020
2019-11-18T04:41:00+09:00,1.1,��쓌,3.2,��,11.8,74.9,0,0,0,0,0,0,1005.8,1019.9
2019-11-18T04:42:00+09:00,1.1,��쓌,3.2,��,11.9,75,0,0,0,0,0,0,1005.8,1019.9
2019-11-18T04:43:00+09:00,1,��쓌,3.2,��,11.9,74.8,0,0,0,0,0,0,1005.8,1019.9
2019-11-18T04:44:00+09:00,1,��,3.2,��,11.7,74.6,0,0,0,0,0,0,1005.8,1019.9
2019-11-18T04:45:00+09:00,1,��,3.2,��,11.7,74.9,0,0,0,0,0,0,1005.8,1019.9
2019-11-18T04:46:00+09:00,0.9,��,3.2,��,11.7,75,0,0,0,0,0,0,1005.9,1020
2019-11-18T04:47:00+09:00,0.9,��,3.2,��,11.6,75.2,0,0,0,0,0,0,1005.8,1019.9
2019-11-18T04:48:00+09:00,0.9,��,3.2,��,11.6,75.4,0,0,0,0,0,0,1005.8,1019.9
2019-11-18T04:49:00+09:00,0.9,��,3.2,��,11.5,75.6,0,0,0,0,0,0,1005.8,1019.9
2019-11-18T04:50:00+09:00,0.9,��,3.2,��,11.5,76,0,0,0,0,0,0,1005.8,1019.9
2019-11-18T04:51:00+09:00,0.8,��,2.6,��,11.6,76.2,0,0,0,0,0,0,1005.8,1019.9
2019-11-18T04:52:00+09:00,0.8,��,2.6,��,11.6,76.2,0,0,0,0,0,0,1005.8,1019.9
2019-11-18T04:53:00+09:00,0.8,��,2.6,��,11.4,76.1,0,0,0,0,0,0,1005.8,1019.9
2019-11-18T04:54:00+09:00,0.8,��,2.6,��,11.4,76.6,0,0,0,0,0,0,1005.8,1019.9
2019-11-18T04:55:00+09:00,0.8,��,2.6,��,11.5,76.8,0,0,0,0,0,0,1005.8,1019.9
2019-11-18T04:56:00+09:00,0.8,��,2.6,��,11.4,76.6,0,0,0,0,0,0,1005.8,1019.9
2019-11-18T04:57:00+09:00,0.8,��,2.6,��,11.5,76.8,0,0,0,0,0,0,1005.8,1019.9
2019-11-18T04:58:00+09:00,0.8,��,2.6,��,11.5,76.8,0,0,0,0,0,0,1005.8,1019.9
2019-11-18T04:59:00+09:00,0.8,��,2.6,��,11.5,76.9,0,0,0,0,0,0,1005.7,1019.8
2019-11-18T05:00:00+09:00,0.8,��,2.6,��,11.5,77,0,0,0,0,0,0,1005.7,1019.8
2019-11-18T05:01:00+09:00,0.8,��,2.3,��,11.6,77,0,0,0,0,0,0,1005.7,1019.8
2019-11-18T05:02:00+09:00,0.7,��,2.3,��,11.5,76.6,0,0,0,0,0,0,1005.8,1019.9
2019-11-18T05:03:00+09:00,0.8,��쓌,3.1,��쓌,11.5,76.9,0,0,0,0,0,0,1005.8,1019.9
2019-11-18T05:04:00+09:00,0.8,��쓌,3.1,��쓌,11.5,77.2,0,0,0,0,0,0,1005.8,1019.9
2019-11-18T05:05:00+09:00,0.9,��쓌,3.1,��쓌,11.5,77.2,0,0,0,0,0,0,1005.7,1019.8
2019-11-18T05:06:00+09:00,0.9,��쓌,3.1,��쓌,11.8,77.2,0,0,0,0,0,0,1005.7,1019.8
2019-11-18T05:07:00+09:00,0.9,��쓌,3.1,��쓌,11.9,76.8,0,0,0,0,0,0,1005.7,1019.8
2019-11-18T05:08:00+09:00,0.9,��쓌,3.1,��쓌,11.8,76.4,0,0,0,0,0,0,1005.7,1019.8
2019-11-18T05:09:00+09:00,0.9,��쓌,3.1,��쓌,11.9,76.2,0,0,0,0,0,0,1005.7,1019.8
2019-11-18T05:10:00+09:00,0.9,��쓌,3.1,��쓌,11.8,76,0,0,0,0,0,0,1005.7,1019.8
2019-11-18T05:11:00+09:00,0.8,��쓌,3.1,��쓌,11.8,76.1,0,0,0,0,0,0,1005.7,1019.8
2019-11-18T05:12:00+09:00,0.8,��쓌,3.1,��쓌,11.9,76.3,0,0,0,0,0,0,1005.7,1019.8
2019-11-18T05:13:00+09:00,0.7,��,2.2,��,12,76.2,0,0,0,0,0,0,1005.7,1019.7
2019-11-18T05:14:00+09:00,0.7,��쓌,2.2,��,12.1,75.9,0,0,0,0,0,0,1005.7,1019.7